ISS DEB (48833 NORAD) Tracking and Keplerian Element Data

This shows tracking and keplerian element data for the satellite.

Feedback or suggestion? Click here.




ElementValue
Catalog48833
NameISS DEB
Epoch Orbit8386
Epoch Day325.16302852
Epoch Year2022
RAAN235.7334
Inclination51.622
Eccentricity0.0006693
Argument of Perigee159.6847
Mean Anonmoly200.4432
Mean Motion16.03723912
Decay Rate0.00562115
L11 48833U 98067SK 22325.16302852 .00562115 15812-3 86113-3 0 9999
L22 48833 51.6220 235.7334 0006693 159.6847 200.4432 16.03723912 83869



Live tracking and technical data element details for ISS DEB (NORAD 48833). ISS DEB can be tracked NOW for your location showing map with azimuth and elevation plus other details from your city location.







IsCatalogInMostPopularTable: catalog: 48833, numindb: 151
Update: records affected: 1



GetName: 48833 ISS DEB

Hit Count: updated at: Mon, 17 Nov 2025 08:02:18 GMT